TimePST,TemperatureF,Dew PointF,Humidity,Sea Level PressureIn,VisibilityMPH,Wind Direction,Wind SpeedMPH,Gust SpeedMPH,PrecipitationIn,Events,Conditions,WindDirDegrees,DateUTC
12:53 AM,39.0,35.1,86,29.87,10.0,Calm,Calm,-,N/A,,Clear,0,2013-03-08 08:53:00
1:53 AM,37.9,35.1,89,29.87,10.0,Calm,Calm,-,N/A,,Clear,0,2013-03-08 09:53:00
2:53 AM,37.0,34.0,89,29.85,10.0,Calm,Calm,-,N/A,,Clear,0,2013-03-08 10:53:00
3:53 AM,36.0,34.0,93,29.84,10.0,Calm,Calm,-,N/A,,Clear,0,2013-03-08 11:53:00
4:53 AM,37.0,34.0,89,29.85,10.0,Calm,Calm,-,N/A,,Clear,0,2013-03-08 12:53:00
5:53 AM,36.0,34.0,93,29.85,10.0,Calm,Calm,-,N/A,,Clear,0,2013-03-08 13:53:00
6:53 AM,37.0,35.1,93,29.86,10.0,Calm,Calm,-,N/A,,Clear,0,2013-03-08 14:53:00
7:53 AM,45.0,37.0,74,29.86,10.0,ENE,3.5,-,N/A,,Clear,70,2013-03-08 15:53:00
8:53 AM,50.0,37.0,61,29.87,10.0,Calm,Calm,-,N/A,,Clear,0,2013-03-08 16:53:00
9:53 AM,57.0,36.0,45,29.88,10.0,Variable,3.5,-,N/A,,Clear,0,2013-03-08 17:53:00
10:53 AM,59.0,30.0,33,29.87,10.0,NW,3.5,-,N/A,,Clear,320,2013-03-08 18:53:00
11:53 AM,61.0,30.9,32,29.87,10.0,Variable,3.5,-,N/A,,Clear,0,2013-03-08 19:53:00
12:53 PM,64.0,35.1,34,29.84,10.0,Calm,Calm,-,N/A,,Clear,0,2013-03-08 20:53:00
1:53 PM,64.9,28.0,25,29.83,10.0,NW,6.9,-,N/A,,Clear,320,2013-03-08 21:53:00
2:53 PM,66.9,36.0,32,29.83,10.0,WSW,11.5,-,N/A,,Scattered Clouds,240,2013-03-08 22:53:00
3:53 PM,64.9,37.9,37,29.83,10.0,SW,12.7,21.9,N/A,,Mostly Cloudy,230,2013-03-08 23:53:00
4:53 PM,62.1,39.9,44,29.84,10.0,WSW,11.5,19.6,N/A,,Clear,250,2013-03-09 00:53:00
5:53 PM,57.9,42.1,56,29.86,10.0,SW,9.2,-,N/A,,Clear,220,2013-03-09 01:53:00
6:53 PM,57.0,41.0,55,29.90,10.0,Variable,3.5,-,N/A,,Clear,0,2013-03-09 02:53:00
7:53 PM,53.1,39.9,61,29.92,10.0,Variable,4.6,-,N/A,,Clear,0,2013-03-09 03:53:00
8:53 PM,50.0,42.1,74,29.95,10.0,South,5.8,-,N/A,,Clear,190,2013-03-09 04:53:00
9:53 PM,46.0,39.9,79,29.97,10.0,WSW,3.5,-,N/A,,Clear,250,2013-03-09 05:53:00
10:53 PM,44.1,39.0,82,30.00,10.0,Calm,Calm,-,N/A,,Clear,0,2013-03-09 06:53:00
11:53 PM,43.0,37.9,82,30.02,10.0,Calm,Calm,-,N/A,,Clear,0,2013-03-09 07:53:00